Weather History for Flippin, AR

Change the Weather History Date:

Friday, January 24, 2014

  Actual Average Record
Temperature  
Mean Temperature 20 °F -  
Max Temperature 39 °F 45 °F 64 °F (2005)
Min Temperature 1 °F 26 °F 1 °F (2014)
Degree Days  
Heating Degree Days 45    
Moisture  
Dew Point -4 °F    
Average Humidity 38    
Maximum Humidity 66    
Minimum Humidity 15    
Precipitation  
Precipitation 0.00 in - - ()
Sea Level Pressure  
Sea Level Pressure 30.39 in    
Wind  
Wind Speed 3 mph (SSW)    
Max Wind Speed 14 mph    
Max Gust Speed 21 mph    
Visibility 10 miles    
Events      
Averages and records for this station are not official NWS values.
T = Trace of Precipitation, MM = Missing Value Source: NWS Daily Summary

Daily Weather History Graph

Daily Weather History Graph

Search for Another Location

Airport:

Trip Planner

Search our weather history database for the weather conditions in past years. The results will help you decide how hot, cold, wet, or windy it might be!

Date:

Astronomy

Jan. 24, 2014 Rise Set
Actual Time 7:16 AM CST 5:28 PM CST
Civil Twilight 6:49 AM CST 5:55 PM CST
Nautical Twilight 6:18 AM CST 6:27 PM CST
Astronomical Twilight 5:47 AM CST 6:57 PM CST
Moon 12:47 AM CST (1/24) 11:45 AM CST (1/24)
Length of Visible Light 11h 06m
Length of Day
10h 11m
Last Quarter, 44% of the Moon is Illuminated
Jan 24
Last Quarter
Jan 30
New
Feb 6
First Quarter
Feb 14
Full
Feb 22
Last Quarter

Hourly Weather History & Observations

Time (CST) Temp. Windchill Dew Point Humidity Pressure Visibility Wind Dir Wind Speed Gust Speed Precip Events Conditions
12:15 AM 8.6 °F - -7.6 °F 48% 30.73 in 10.0 mi Calm Calm - N/A   Clear
12:35 AM 8.6 °F - -5.8 °F 52% 30.72 in 10.0 mi Calm Calm - N/A   Clear
12:55 AM 6.8 °F -2.0 °F -5.8 °F 56% 30.71 in 10.0 mi South 4.6 mph - N/A   Clear
1:15 AM 6.8 °F - -5.8 °F 56% 30.71 in 10.0 mi Calm Calm - N/A   Clear
1:35 AM 6.8 °F - -7.6 °F 52% 30.70 in 10.0 mi Calm Calm - N/A   Clear
1:55 AM 5.0 °F - -7.6 °F 56% 30.70 in 10.0 mi Calm Calm - N/A   Clear
2:15 AM 6.8 °F -0.1 °F -5.8 °F 56% 30.69 in 10.0 mi SW 3.5 mph - N/A   Clear
2:35 AM 6.8 °F -0.1 °F -7.6 °F 52% 30.70 in 10.0 mi WSW 3.5 mph - N/A   Clear
2:55 AM 6.8 °F - -5.8 °F 56% 30.69 in 10.0 mi Calm Calm - N/A   Clear
3:15 AM 5.0 °F - -7.6 °F 56% 30.68 in 10.0 mi Calm Calm - N/A   Clear
3:35 AM 5.0 °F -2.1 °F -5.8 °F 61% 30.68 in 10.0 mi SSW 3.5 mph - N/A   Clear
3:55 AM 5.0 °F -2.1 °F -7.6 °F 56% 30.67 in 10.0 mi SSW 3.5 mph - N/A   Clear
4:15 AM 5.0 °F -4.1 °F -7.6 °F 56% 30.66 in 10.0 mi SW 4.6 mph - N/A   Clear
4:35 AM 6.8 °F -2.0 °F -7.6 °F 52% 30.66 in 10.0 mi SW 4.6 mph - N/A   Clear
4:55 AM 6.8 °F -2.0 °F -7.6 °F 52% 30.65 in 10.0 mi SW 4.6 mph - N/A   Clear
5:15 AM 6.8 °F -2.0 °F -7.6 °F 52% 30.64 in 10.0 mi SW 4.6 mph - N/A   Clear
5:35 AM 5.0 °F - -9.4 °F 52% 30.63 in 10.0 mi Calm Calm - N/A   Clear
5:55 AM 3.2 °F - -7.6 °F 61% 30.62 in 10.0 mi Calm Calm - N/A   Clear
6:15 AM 3.2 °F - -7.6 °F 61% 30.62 in 10.0 mi Calm Calm - N/A   Clear
6:35 AM 1.4 °F - -7.6 °F 66% 30.61 in 10.0 mi Calm Calm - N/A   Clear
6:55 AM 1.4 °F - -7.6 °F 66% 30.61 in 10.0 mi Calm Calm - N/A   Clear
7:15 AM 1.4 °F - -7.6 °F 66% 30.60 in 10.0 mi Calm Calm - N/A   Clear
7:35 AM 1.4 °F - -7.6 °F 66% 30.60 in 10.0 mi Calm Calm - N/A   Clear
7:55 AM 3.2 °F - -5.8 °F 66% 30.60 in 10.0 mi Calm Calm - N/A   Clear
8:15 AM 3.2 °F - -5.8 °F 66% 30.59 in 10.0 mi Calm Calm - N/A   Clear
8:35 AM 6.8 °F - -5.8 °F 56% 30.58 in 10.0 mi Calm Calm - N/A   Clear
8:55 AM 8.6 °F - -4.0 °F 57% 30.58 in 10.0 mi Calm Calm - N/A   Clear
9:15 AM 10.4 °F 4.0 °F -2.2 °F 57% 30.57 in 10.0 mi SSE 3.5 mph - N/A   Clear
9:35 AM 12.2 °F 6.1 °F -2.2 °F 53% 30.56 in 10.0 mi South 3.5 mph - N/A   Clear
9:55 AM 15.8 °F 8.6 °F -2.2 °F 45% 30.55 in 10.0 mi SSW 4.6 mph - N/A   Clear
10:15 AM 17.6 °F 9.3 °F -0.4 °F 45% 30.54 in 10.0 mi South 5.8 mph - N/A   Clear
10:35 AM 19.4 °F - -0.4 °F 42% 30.54 in 10.0 mi Calm Calm - N/A   Clear
10:55 AM 21.2 °F 11.7 °F -0.4 °F 39% 30.51 in 10.0 mi South 8.1 mph - N/A   Clear
11:15 AM 23.0 °F 14.7 °F -0.4 °F 36% 30.49 in 10.0 mi SSW 6.9 mph - N/A   Clear
11:35 AM 24.8 °F 15.3 °F -0.4 °F 34% 30.47 in 10.0 mi SSW 9.2 mph - N/A   Clear
11:55 AM 28.4 °F 19.7 °F -0.4 °F 29% 30.45 in 10.0 mi SW 9.2 mph - N/A   Clear
12:15 PM 30.2 °F 21.9 °F -0.4 °F 27% 30.43 in 10.0 mi SW 9.2 mph - N/A   Clear
12:35 PM 30.2 °F 19.8 °F -2.2 °F 25% 30.39 in 10.0 mi SW 13.8 mph 19.6 mph N/A   Clear
12:55 PM 32.0 °F 22.5 °F -4.0 °F 21% 30.37 in 10.0 mi South 12.7 mph - N/A   Clear
1:15 PM 33.8 °F 25.8 °F -4.0 °F 20% 30.35 in 10.0 mi SSW 10.4 mph 17.3 mph N/A   Clear
1:35 PM 33.8 °F 25.3 °F -4.0 °F 20% 30.33 in 10.0 mi SSW 11.5 mph 17.3 mph N/A   Clear
1:55 PM 33.8 °F 25.8 °F -4.0 °F 20% 30.31 in 10.0 mi WSW 10.4 mph 19.6 mph N/A   Clear
2:15 PM 35.6 °F 29.2 °F -5.8 °F 17% 30.29 in 10.0 mi SW 8.1 mph 19.6 mph N/A   Clear
2:35 PM 35.6 °F 29.2 °F -4.0 °F 18% 30.26 in 10.0 mi SSW 8.1 mph 17.3 mph N/A   Clear
2:55 PM 37.4 °F 29.3 °F -5.8 °F 16% 30.25 in 10.0 mi SW 12.7 mph 20.7 mph N/A   Clear
3:15 PM 39.2 °F - -5.8 °F 15% - 10.0 mi North - - N/A   Clear
3:35 PM 37.4 °F 30.3 °F -5.8 °F 16% 30.21 in 10.0 mi SSW 10.4 mph 18.4 mph N/A   Clear
3:55 PM 37.4 °F 30.8 °F -5.8 °F 16% 30.19 in 10.0 mi SSW 9.2 mph 17.3 mph N/A   Clear
4:15 PM 37.4 °F 29.3 °F -7.6 °F 15% 30.17 in 10.0 mi South 12.7 mph - N/A   Clear
4:35 PM 37.4 °F 30.8 °F -7.6 °F 15% 30.17 in 10.0 mi SSW 9.2 mph 19.6 mph N/A   Clear
4:55 PM 35.6 °F 27.1 °F -7.6 °F 16% 30.16 in 10.0 mi SSW 12.7 mph 17.3 mph N/A   Clear
5:15 PM 35.6 °F 29.2 °F -5.8 °F 17% 30.15 in 10.0 mi SSW 8.1 mph 16.1 mph N/A   Clear
5:35 PM 33.8 °F 28.6 °F -5.8 °F 18% 30.14 in 10.0 mi SSW 5.8 mph - N/A   Clear
5:55 PM 32.0 °F 25.6 °F -5.8 °F 20% 30.14 in 10.0 mi South 6.9 mph - N/A   Clear
6:15 PM 32.0 °F 24.8 °F -5.8 °F 20% 30.14 in 10.0 mi SSW 8.1 mph - N/A   Clear
6:35 PM 32.0 °F 25.6 °F -2.2 °F 23% 30.14 in 10.0 mi South 6.9 mph - N/A   Clear
6:55 PM 30.2 °F 22.6 °F -2.2 °F 25% 30.13 in 10.0 mi SSW 8.1 mph - N/A   Clear
7:15 PM 30.2 °F 24.3 °F -2.2 °F 25% 30.13 in 10.0 mi SSW 5.8 mph - N/A   Clear
7:35 PM 30.2 °F 24.3 °F -2.2 °F 25% 30.13 in 10.0 mi SW 5.8 mph - N/A   Clear
7:55 PM 30.2 °F 25.4 °F -2.2 °F 25% 30.11 in 10.0 mi SSW 4.6 mph - N/A   Mostly Cloudy
8:15 PM 30.2 °F 25.4 °F -0.4 °F 27% 30.09 in 10.0 mi South 4.6 mph - N/A   Scattered Clouds
8:35 PM 30.2 °F 26.7 °F -0.4 °F 27% 30.08 in 10.0 mi SSW 3.5 mph - N/A   Partly Cloudy
8:55 PM 28.4 °F 23.3 °F -0.4 °F 29% 30.06 in 10.0 mi SW 4.6 mph - N/A   Partly Cloudy
9:15 PM 28.4 °F 21.2 °F -0.4 °F 29% 30.06 in 10.0 mi SW 6.9 mph - N/A   Clear
9:35 PM 28.4 °F - -0.4 °F 29% 30.04 in 10.0 mi Calm Calm - N/A   Clear
9:55 PM 28.4 °F - -0.4 °F 29% 30.04 in 10.0 mi Calm Calm - N/A   Clear
10:15 PM 28.4 °F - -0.4 °F 29% 30.03 in 10.0 mi Calm Calm - N/A   Clear
10:35 PM 30.2 °F - -0.4 °F 27% 30.01 in 10.0 mi Calm Calm - N/A   Clear
10:55 PM 28.4 °F 24.6 °F 1.4 °F 31% 29.99 in 10.0 mi SSW 3.5 mph - N/A   Clear
11:15 PM 30.2 °F 25.4 °F 1.4 °F 29% 29.98 in 10.0 mi WSW 4.6 mph - N/A   Clear
11:35 PM 30.2 °F 25.4 °F 3.2 °F 32% 29.97 in 10.0 mi WSW 4.6 mph - N/A   Clear
11:55 PM 33.8 °F 27.7 °F 5.0 °F 30% 29.96 in 10.0 mi WSW 6.9 mph - N/A   Clear